Location: Karcze
(52.0945°N, 22.4786°E)
Time: 12:46:28
(UTC+00:00)

Cosmos 1743 - Pass Details

Date: 14 July 2020
Orbit: 511 x 526 km, 82.6° (Epoch: 07 August)

Event Time Altitude Azimuth Distance (km) Brightness Sun altitude
Exits shadow 01:27:33 - 181° (S) 2,266 5.5 -7.3°
Reaches altitude 10° 01:28:49 10° 180° (S) 1,738 4.9 -7.2°
Maximum altitude 01:32:36 67° 98° (E) 565 3.0 -6.8°
Drops below altitude 10° 01:36:26 10° 15° (NNE) 1,761 6.6 -6.4°
Sets 01:38:36 0° 13° (NNE) 2,656 7.5 -6.2°
